{"data":{"norad_id":60371,"intl_designator":"2024-138S","name":"STARLINK-32263","alt_names":[],"object_type":"PAYLOAD","status":"ACTIVE","operator":null,"country":"US","launch_date":"2024-08-04","launch_site_code":"AFWTR","launch_vehicle":null,"mission":null,"orbit_class":"UNKNOWN","rcs_meters":null,"size_class":null,"mass_kg":null,"dimensions":null,"purposes":["comms"],"wikipedia_slug":null,"has_3d_model":false,"image_url":null,"decayed_at":null,"tle_current":{"epoch":"2026-09-21T20:00:52.473024Z","epoch_age_seconds":70394,"freshness":"FRESH","line1":"1 60371U 24138S   26264.83394066  .00000203  00000+0  17138-4 0  9992","line2":"2 60371  53.1606 117.4373 0001329  97.3346 262.7808 15.34389043120571","mean_motion":15.34389043,"eccentricity":0.0001329,"inclination_deg":53.1606,"raan_deg":117.4373,"arg_perigee_deg":97.3346,"mean_anomaly_deg":262.7808,"bstar":1.7138e-5,"rev_number":12057,"period_min":93.848428243762,"perigee_km":461.82665491795,"apogee_km":463.64495891002,"semimajor_km":6840.872806914,"source":"CELESTRAK","updated_at":"2026-09-22T09:00:49.226892Z"}}}